FW4441 Weather Reports


time (UTC)temp
F
wind
direction
speed
knots
gust
knots
rain 1hr
in
rain 24hr
in
rain mn
in
humidity
%
barometer
mb
20260902021532 63 243 9.6 18.2 0.00 0.01 0.01 66 1007.5
20260902020030 64 250 9.6 18.2 0.00 0.01 0.01 64 1007.5
20260902013033 66 243 11.3 17.4 0.00 0.01 0.01 60 1007.3
20260902011530 68 249 10.4 19.1 0.00 0.01 0.01 59 1007.2
20260902010029 68 262 9.6 20.9 0.00 0.01 0.01 59 1007.1
20260902004533 68 260 10.4 19.1 0.00 0.01 0.01 60 1007.1
20260902003029 66 252 11.3 21.7 0.00 0.01 0.01 61 1007.0
20260902001533 67 253 11.3 20.9 0.00 0.01 0.01 61 1006.8
20260902000032 66 254 10.4 22.6 0.00 0.01 0.01 62 1007.1
20260901234606 67 250 13.0 28.7 0.00 0.01 0.01 61 1007.1
20260901233032 68 251 12.2 20.0 0.00 0.01 0.01 60 1007.1
20260901231532 68 259 13.0 17.4 0.00 0.01 0.01 60 1007.0
20260901230030 70 259 13.9 26.9 0.00 0.01 0.01 56 1007.0
20260901224533 72 254 14.8 26.1 0.00 0.01 0.01 55 1006.8
20260901223030 73 266 13.9 26.9 0.00 0.01 0.01 55 1006.5
20260901220030 72 273 11.3 20.9 0.00 0.01 0.01 56 1006.6
20260901213030 72 261 11.3 23.5 0.01 0.01 0.01 56 1006.6
20260901211531 71 263 11.3 23.5 0.01 0.01 0.01 56 1006.7
20260901210105 72 260 14.8 22.6 0.01 0.01 0.00 55 1006.6
20260901204608 73 253 10.4 21.7 0.00 0.00 0.00 54 1006.9
20260901201529 73 263 9.6 18.2 0.00 0.00 0.00 55 1007.0
20260901200033 72 258 10.4 20.0 0.00 0.00 0.00 56 1007.1
20260901194604 72 260 11.3 20.0 0.00 0.00 0.00 56 1007.4
20260901193030 72 254 9.6 17.4 0.00 0.00 0.00 57 1007.6
20260901191648 71 262 10.4 20.0 0.00 0.00 0.00 57 1007.8
20260901190106 71 263 8.7 20.9 0.00 0.00 0.00 58 1008.0
20260901184533 71 264 7.8 13.0 0.00 0.00 0.00 59 1008.1
20260901183106 70 258 7.0 11.3 0.00 0.00 0.00 60 1008.2
20260901181530 69 258 8.7 18.2 0.00 0.00 0.00 61 1008.3
20260901180030 68 256 7.8 15.6 0.00 0.00 0.00 63 1008.5
20260901174607 68 257 7.8 14.8 0.00 0.00 0.00 64 1008.4
20260901173032 67 264 6.1 12.2 0.00 0.00 0.00 67 1008.5
20260901171530 64 258 7.0 13.0 0.00 0.00 0.00 71 1008.5
20260901170032 63 254 6.1 13.0 0.00 0.00 0.00 73 1008.4
20260901164530 62 256 5.2 13.0 0.00 0.00 0.00 75 1008.5
20260901161605 60 262 5.2 12.2 0.00 0.00 0.00 78 1008.5
20260901160106 60 269 4.3 7.8 0.00 0.00 0.00 79 1008.4
20260901154535 59 279 4.3 9.6 0.00 0.00 0.00 81 1008.3
20260901153041 57 284 3.5 7.0 0.00 0.00 0.00 82 1008.4
20260901150032 57 287 3.5 7.8 0.00 0.00 0.00 83 1008.2
20260901144645 57 296 2.6 6.1 0.00 0.00 0.00 83 1008.2
20260901143031 57 291 2.6 7.0 0.00 0.00 0.00 83 1008.1
20260901141530 57 292 3.5 7.8 0.00 0.00 0.00 83 1008.0
20260901140031 56 296 2.6 5.2 0.00 0.00 0.00 83 1007.7
20260901134531 56 315 2.6 7.0 0.00 0.00 0.00 83 1007.6
20260901130029 56 322 2.6 6.1 0.00 0.00 0.00 83 1007.2
20260901124531 56 336 1.7 6.1 0.00 0.00 0.00 81 1007.1
20260901123031 56 13 2.6 4.3 0.00 0.00 0.00 81 1007.1
20260901121533 56 24 2.6 5.2 0.00 0.00 0.00 80 1007.1
20260901120030 56 25 2.6 4.3 0.00 0.00 0.00 79 1007.0
20260901114531 57 26 2.6 5.2 0.00 0.00 0.00 78 1007.1
20260901113030 57 19 3.5 6.1 0.00 0.00 0.00 77 1007.0
20260901111531 57 24 4.3 6.1 0.00 0.00 0.00 76 1006.9
20260901110042 58 25 3.5 6.1 0.00 0.00 0.00 75 1006.9
20260901110032 58 23 4.3 7.0 0.00 0.00 0.00 74 1006.9
20260901103031 57 22 4.3 6.1 0.00 0.00 0.00 73 1006.8
20260901101530 57 18 2.6 6.1 0.00 0.00 0.00 72 1006.9
20260901100030 58 16 3.5 5.2 0.00 0.00 0.00 70 1006.8
20260901094531 58 12 3.5 5.2 0.00 0.00 0.00 69 1006.8
20260901093030 58 9 2.6 6.1 0.00 0.00 0.00 66 1006.8
20260901091531 57 10 3.5 6.1 0.00 0.00 0.00 63 1006.6
20260901090031 57 312 0.9 4.3 0.00 0.00 0.00 63 1006.6
20260901084540 57 270 0.0 0.9 0.00 0.00 0.00 64 1006.6
20260901083030 57 270 0.0 0.0 0.00 0.00 0.00 63 1006.8
20260901081532 57 270 0.0 0.9 0.00 0.00 0.00 62 1006.8
20260901080029 58 265 0.9 3.5 0.00 0.00 0.00 60 1006.6
20260901071529 60 21 3.5 5.2 0.00 0.00 0.00 54 1006.3
20260901070032 60 22 3.5 5.2 0.00 0.00 0.00 53 1006.2
20260901064532 61 9 3.5 5.2 0.00 0.00 0.00 50 1006.3
20260901061530 63 155 0.9 2.6 0.00 0.00 0.00 45 1006.4
20260901060032 64 157 0.9 2.6 0.00 0.00 0.00 44 1006.4
20260901054531 64 30 0.0 2.6 0.00 0.00 0.00 43 1006.4
20260901053031 65 64 0.9 2.6 0.00 0.00 0.00 41 1006.4
20260901044530 67 170 1.7 2.6 0.00 0.00 0.00 40 1006.2
20260901043029 68 151 1.7 3.5 0.00 0.00 0.00 41 1006.1
20260901040030 67 23 1.7 3.5 0.00 0.00 0.00 42 1005.8
20260901034532 67 354 3.5 4.3 0.00 0.00 0.00 41 1005.6
20260901033033 69 4 2.6 5.2 0.00 0.00 0.00 37 1005.3
20260901031531 71 134 0.9 2.6 0.00 0.00 0.00 35 1005.2
20260901030029 73 176 1.7 3.5 0.00 0.00 0.00 33 1005.0
20260901024532 74 120 0.0 2.6 0.00 0.00 0.00 31 1004.9
20260901023030 75 112 0.9 2.6 0.00 0.00 0.00 30 1004.7